Location: Asis
(14.1331°N, 120.9056°E)
Time: 04:50:04
(UTC+00:00)

SWIFT - Visible Passes

Search period start: 21 April 2026 00:00
Search period end: 01 May 2026 00:00
Orbit: 378 x 380 km, 20.6° (Epoch: 19 April)

Date Brightness Start Highest point End Pass type
(mag) Time Alt. Az. Time Alt. Az. Time Alt. Az.
21 Apr 2.7 20:49:13 17° SW 20:51:06 34° SSE 20:54:00 10° E visible
22 Apr 4.5 19:49:31 14° ESE 19:49:31 14° ESE 19:50:11 10° ESE visible
23 Apr 1.6 20:21:45 62° S 20:21:52 63° SSE 20:24:59 10° E visible
24 Apr 2.0 20:53:51 16° W 20:56:06 50° NNW 20:59:09 10° ENE visible
25 Apr 3.6 19:53:51 28° ENE 19:53:51 28° ENE 19:55:30 10° ENE visible
26 Apr 2.6 20:25:46 30° NW 20:26:29 35° N 20:29:23 10° ENE visible
27 Apr 5.2 19:25:36 10° ENE 19:25:36 10° ENE 19:25:37 10° ENE visible
27 Apr 3.3 20:57:58 10° WNW 21:00:37 25° N 21:03:16 10° NE visible
28 Apr 3.6 19:57:21 24° NNE 19:57:21 24° NNE 19:59:21 10° NE visible
29 Apr 3.4 20:29:03 16° NW 20:30:36 23° N 20:33:11 10° NE visible
30 Apr 5.0 19:28:44 12° NE 19:28:44 12° NE 19:29:03 10° NE visible
30 Apr 3.3 21:01:47 10° NW 21:04:31 27° N 21:07:15 10° ENE visible
